| time (UTC) | temp F | wind direction | speed knots | gust knots | rain 1hr in | rain 24hr in | rain mn in | humidity % | barometer mb |
| 20260508180017 | 71 | 293 | 6.1 | 19.1 | 0.00 | 0.00 | 0.00 | 23 | 1005.9 |
| 20260508173018 | 70 | 248 | 6.1 | 13.9 | 0.00 | 0.00 | 0.00 | 24 | 1006.5 |
| 20260508170018 | 68 | 315 | 8.7 | 20.0 | 0.00 | 0.00 | 0.00 | 27 | 1007.0 |
| 20260508163018 | 68 | 293 | 7.8 | 20.0 | 0.00 | 0.00 | 0.00 | 26 | 1007.5 |
| 20260508160018 | 67 | 293 | 7.0 | 15.6 | 0.00 | 0.00 | 0.00 | 26 | 1007.8 |
| 20260508153018 | 66 | 248 | 5.2 | 13.9 | 0.00 | 0.00 | 0.00 | 28 | 1007.9 |
| 20260508150017 | 64 | 248 | 6.1 | 13.9 | 0.00 | 0.00 | 0.00 | 33 | 1008.2 |
| 20260508143037 | 61 | 225 | 4.3 | 10.4 | 0.00 | 0.00 | 0.00 | 40 | 1008.3 |
| 20260508140037 | 57 | 225 | 4.3 | 9.6 | 0.00 | 0.00 | 0.00 | 44 | 1008.5 |
| 20260508133016 | 54 | 225 | 4.3 | 10.4 | 0.00 | 0.00 | 0.00 | 45 | 1008.6 |
| 20260508130017 | 51 | 203 | 6.1 | 11.3 | 0.00 | 0.00 | 0.00 | 52 | 1008.4 |
| 20260508123016 | 46 | 203 | 4.3 | 7.8 | 0.00 | 0.00 | 0.00 | 56 | 1008.6 |
| 20260508120017 | 43 | 203 | 3.5 | 7.8 | 0.00 | 0.00 | 0.00 | 60 | 1008.3 |
| 20260508113017 | 43 | 203 | 5.2 | 7.8 | 0.00 | 0.00 | 0.00 | 55 | 1008.2 |
| 20260508110016 | 43 | 203 | 6.1 | 7.8 | 0.00 | 0.00 | 0.00 | 53 | 1008.3 |
| 20260508103016 | 43 | 203 | 6.1 | 8.7 | 0.00 | 0.00 | 0.00 | 53 | 1008.3 |
| 20260508100017 | 42 | 203 | 5.2 | 8.7 | 0.00 | 0.00 | 0.00 | 54 | 1008.3 |
| 20260508093017 | 42 | 203 | 5.2 | 7.8 | 0.00 | 0.00 | 0.00 | 53 | 1008.6 |
| 20260508090016 | 43 | 203 | 5.2 | 7.8 | 0.00 | 0.00 | 0.00 | 52 | 1008.7 |
| 20260508083017 | 42 | 203 | 3.5 | 7.0 | 0.00 | 0.00 | 0.00 | 55 | 1008.8 |
| 20260508080016 | 42 | 203 | 2.6 | 5.2 | 0.00 | 0.00 | 0.00 | 55 | 1008.8 |
| 20260508073016 | 42 | 203 | 1.7 | 4.3 | 0.00 | 0.00 | 0.00 | 57 | 1009.1 |
| 20260508070016 | 43 | 203 | 3.5 | 5.2 | 0.00 | 0.00 | 0.00 | 54 | 1009.4 |
| 20260508063036 | 44 | 203 | 2.6 | 5.2 | 0.00 | 0.00 | 0.00 | 53 | 1009.5 |
| 20260508060036 | 45 | 203 | 3.5 | 5.2 | 0.00 | 0.00 | 0.00 | 52 | 1009.7 |
| 20260508053036 | 45 | 0 | 3.5 | 6.1 | 0.00 | 0.00 | 0.00 | 47 | 1009.9 |
| 20260508050016 | 47 | 0 | 1.7 | 3.5 | 0.00 | 0.00 | 0.00 | 46 | 1010.0 |
| 20260508043037 | 49 | 0 | 0.9 | 2.6 | 0.00 | 0.00 | 0.00 | 43 | 1010.3 |
| 20260508040017 | 50 | 0.0 | 1.7 | 0.00 | 0.00 | 0.00 | 40 | 1010.5 | |
| 20260508033017 | 52 | 0 | 2.6 | 3.5 | 0.00 | 0.00 | 0.00 | 36 | 1010.6 |
| 20260508030017 | 53 | 0 | 2.6 | 4.3 | 0.00 | 0.00 | 0.00 | 35 | 1010.5 |
| 20260508023017 | 54 | 0 | 2.6 | 3.5 | 0.00 | 0.00 | 0.00 | 34 | 1010.5 |
| 20260508020018 | 57 | 0 | 3.5 | 7.0 | 0.00 | 0.00 | 0.00 | 31 | 1010.2 |
| 20260508013017 | 58 | 0 | 5.2 | 7.8 | 0.00 | 0.00 | 0.00 | 29 | 1009.9 |
| 20260508010017 | 60 | 338 | 6.1 | 11.3 | 0.00 | 0.00 | 0.00 | 27 | 1009.9 |
| 20260508003017 | 61 | 315 | 7.0 | 12.2 | 0.00 | 0.00 | 0.00 | 25 | 1009.6 |
| 20260508000016 | 62 | 315 | 9.6 | 17.4 | 0.00 | 0.00 | 0.00 | 25 | 1009.7 |
| 20260507233037 | 63 | 293 | 7.0 | 16.5 | 0.00 | 0.00 | 0.00 | 24 | 1009.9 |
| 20260507230015 | 63 | 315 | 9.6 | 20.0 | 0.00 | 0.00 | 0.00 | 23 | 1010.1 |
| 20260507223016 | 62 | 315 | 8.7 | 20.9 | 0.00 | 0.00 | 0.00 | 25 | 1010.2 |
| 20260507220015 | 63 | 315 | 7.8 | 18.2 | 0.00 | 0.00 | 0.00 | 26 | 1010.5 |
| 20260507213015 | 62 | 338 | 9.6 | 18.2 | 0.00 | 0.00 | 0.00 | 24 | 1010.8 |
| 20260507210015 | 62 | 315 | 9.6 | 20.0 | 0.00 | 0.00 | 0.00 | 25 | 1011.0 |
| 20260507203018 | 61 | 315 | 7.8 | 17.4 | 0.00 | 0.00 | 0.00 | 25 | 1011.1 |
| 20260507200017 | 60 | 315 | 9.6 | 20.0 | 0.00 | 0.00 | 0.00 | 29 | 1011.6 |
| 20260507193018 | 60 | 315 | 7.8 | 20.0 | 0.00 | 0.00 | 0.00 | 28 | 1011.8 |
| 20260507190018 | 58 | 315 | 9.6 | 16.5 | 0.00 | 0.00 | 0.00 | 29 | 1011.8 |
| 20260507183018 | 57 | 315 | 7.0 | 22.6 | 0.00 | 0.00 | 0.00 | 30 | 1012.2 |